[[{"header":{"parameterUnit":"m.s-1","parameterCategory":1,"la1":30.2991,"la2":30.254,"lo1":-89.0895,"lo2":-89.0444,"dy":0.0017,"dx":0.0017,"nx":28,"ny":28,"refTime":"2023-10-17T03:00:00:Z","depth":0,"parameterNumber":2,"parameterNumberName":"U-component_of_WINDS"},"data":[0,0,0,0,0,0,0,0,0,0,0,0,0,0,0,0,0,0,0,0,0,0,0,0,0,0,0,0,0,0,0,0,0,0,0,0,0,0,0,0,0,0,0,0,0,0,0,0,0,0,0,0,0,0,0,0,0,0,-0.1136,-0.1137,0,-0.1243,-0.1244,-0.1246,-0.1235,-0.1234,-0.1232,-0.123,-0.1344,-0.1349,-0.1353,0,0,0,0,0,0,0,0,0,0,0,0,0,-0.0924,-0.0928,-0.1135,-0.1137,-0.1138,-0.1243,-0.1245,-0.1246,-0.1236,-0.1234,-0.1232,-0.123,-0.1343,-0.1348,-0.1353,0,0,0,0,0,0,0,0,0,0,0,0,0,-0.1022,-0.0929,-0.1135,-0.1146,-0.1148,-0.1243,-0.1245,-0.1246,-0.1236,-0.1234,-0.1231,-0.1229,-0.1341,-0.1347,-0.1354,-0.1447,0,0,-0.1375,-0.1378,0,0,0,0,0,0,0,0,-0.1016,-0.103,-0.1143,-0.1145,-0.1147,-0.1223,-0.1212,-0.1314,-0.1237,-0.1203,-0.123,-0.1228,-0.1306,-0.1316,-0.1342,-0.1452,-0.1457,-0.1376,-0.138,-0.1383,-0.1385,0,0,0,0,0,0,0,-0.101,-0.1025,-0.1178,-0.1144,-0.1147,-0.1146,-0.1157,-0.1231,-0.1267,-0.1205,-0.1205,-0.1218,-0.1307,-0.1335,-0.1344,-0.1459,-0.1376,-0.1382,-0.1386,-0.1389,-0.1653,-0.1655,0,0,0,0,0,0,-0.1,-0.102,-0.1175,-0.1181,-0.1074,-0.1152,-0.1164,-0.1202,-0.1266,-0.1274,-0.122,-0.1217,-0.1324,-0.1336,-0.1348,-0.1463,-0.1383,-0.1389,-0.1393,-0.165,-0.1653,-0.1656,0,0,0,0,0,0,-0.0995,-0.1014,-0.117,-0.11,-0.112,-0.1158,-0.12,-0.1205,-0.1233,-0.1277,-0.1284,-0.1241,-0.1323,-0.1338,-0.1423,-0.1466,-0.1393,-0.1399,-0.1646,-0.1651,-0.1655,-0.1691,0,0,0,0,0,0,-0.0989,-0.1012,-0.1047,-0.1101,-0.1124,-0.1243,-0.1203,-0.1209,-0.1244,-0.1242,-0.1299,-0.1307,-0.1322,-0.1412,-0.1429,-0.1474,-0.1404,-0.1643,-0.1648,-0.1654,-0.1686,-0.1696,-0.1705,0,0,0,0,0,-0.0982,-0.1054,-0.1049,-0.1068,-0.1168,-0.1245,-0.1258,-0.1274,-0.1248,-0.1284,-0.1313,-0.1305,-0.1458,-0.1421,-0.144,-0.1488,-0.164,-0.1647,-0.1653,-0.1682,-0.1694,-0.1704,0,0,0,0,0,0,-0.1005,-0.1061,-0.1057,-0.1148,-0.1192,-0.1243,-0.1289,-0.1286,-0.1339,-0.1334,-0.1352,-0.1365,-0.145,-0.1477,-0.1435,-0.1582,-0.1546,-0.1556,-0.1561,-0.1573,-0.1582,-0.1575,-0.141,0,0,0,0,0,-0.1021,-0.1077,-0.1123,-0.1199,-0.1221,-0.1251,-0.1285,-0.1293,-0.134,-0.1359,-0.1393,-0.144,-0.1498,-0.1537,-0.1593,-0.1689,-0.1703,-0.1731,-0.1741,-0.1748,-0.1758,-0.1812,-0.1826,-0.1678,-0.1678,-0.1678,0,0,-0.1054,-0.1092,-0.1126,-0.1205,-0.124,-0.1299,-0.1267,-0.1331,-0.1376,-0.1369,-0.1451,-0.1478,-0.153,-0.1621,-0.1663,-0.1647,-0.1801,-0.1756,-0.1762,-0.1768,-0.182,-0.1834,-0.1846,-0.1682,-0.1681,-0.1681,0,0,-0.1146,-0.1179,-0.1246,-0.1282,-0.1335,-0.1354,-0.137,-0.1422,-0.1439,-0.1521,-0.1518,-0.1571,-0.1671,-0.171,-0.1742,-0.1847,-0.1843,-0.1865,-0.1914,-0.1967,-0.1978,-0.1989,-0.2028,-0.2042,-0.1874,-0.1874,-0.1874,0,-0.1181,-0.1269,-0.1282,-0.1347,-0.1382,-0.1377,-0.1446,-0.148,-0.1549,-0.1574,-0.1554,-0.168,-0.1715,-0.1816,-0.1841,-0.1867,-0.1887,-0.186,-0.1975,-0.1986,-0.1996,-0.2034,-0.2049,-0.1877,-0.1876,-0.1876,-0.1876,0,-0.1311,-0.1372,-0.1421,-0.1487,-0.1527,-0.1594,-0.1618,-0.1657,-0.1661,-0.1683,-0.1767,-0.1809,-0.1874,-0.1898,-0.1903,-0.2,-0.1988,-0.1971,-0.1936,-0.2013,-0.2049,-0.2063,-0.188,-0.1879,-0.1879,-0.1878,0,0,-0.1422,-0.1493,-0.1511,-0.1542,-0.1599,-0.1647,-0.1714,-0.1777,-0.1811,-0.1858,-0.1916,-0.2001,-0.1986,-0.2023,-0.2032,-0.2077,-0.216,-0.2056,-0.2057,-0.2075,-0.2271,-0.2285,-0.2302,-0.2156,-0.2159,-0.2161,-0.2268,0,-0.1521,-0.1639,-0.1652,-0.1757,-0.1815,-0.181,-0.1869,-0.1911,-0.1933,-0.1985,-0.201,-0.207,-0.2045,-0.2067,-0.2112,-0.2141,-0.22,-0.2133,-0.2212,-0.2215,-0.2202,-0.232,-0.2335,-0.2434,-0.2282,-0.2284,-0.2286,0,-0.1653,-0.1703,-0.1814,-0.1864,-0.1889,-0.1941,-0.2,-0.205,-0.2098,-0.211,-0.2151,-0.2154,-0.2224,-0.2184,-0.2282,-0.2236,-0.2268,-0.2287,-0.2291,-0.2302,-0.2257,-0.2336,-0.2465,-0.2481,-0.2308,-0.2306,-0.2304,0,-0.1726,-0.1821,-0.19,-0.1926,-0.1985,-0.2023,-0.2049,-0.2094,-0.2131,-0.2183,-0.2207,-0.2266,-0.2299,-0.2345,-0.2365,-0.2333,-0.2462,-0.2423,-0.2476,-0.2476,-0.2506,-0.2504,-0.2645,-0.2523,-0.2523,-0.2522,-0.2522,0,-0.1837,-0.1905,-0.1934,-0.1983,-0.206,-0.2074,-0.215,-0.2175,-0.2216,-0.227,-0.2269,-0.232,-0.2341,-0.2396,-0.2412,-0.2491,-0.2506,-0.2519,-0.2523,-0.2521,-0.2519,-0.2545,-0.2539,-0.2526,-0.2525,-0.2525,-0.2524,0,-0.1932,-0.1954,-0.204,-0.2089,-0.2103,-0.2158,-0.22,-0.2248,-0.2268,-0.2337,-0.2354,-0.2387,-0.2452,-0.2475,-0.2553,-0.2563,-0.2657,-0.2653,-0.2641,-0.2642,-0.2695,-0.2691,-0.2859,-0.2882,-0.2742,-0.2744,-0.2745,0,-0.2003,-0.2055,-0.2109,-0.2145,-0.2173,-0.2231,-0.2269,-0.2284,-0.2324,-0.2382,-0.2423,-0.2487,-0.254,-0.2643,-0.2675,-0.2735,-0.2735,-0.279,-0.2744,-0.2741,-0.2739,-0.2736,-0.2743,-0.2799,-0.2801,-0.2802,-0.2803,0,-0.2126,-0.2134,-0.2188,-0.2246,-0.229,-0.2337,-0.2382,-0.2411,-0.2434,-0.2478,-0.2544,-0.2584,-0.2664,-0.2729,-0.279,-0.2819,-0.2816,-0.2816,-0.2832,-0.2832,-0.2823,-0.2831,-0.2667,-0.2813,-0.2812,-0.2811,-0.2811,-0.281,-0.2213,-0.226,-0.2306,-0.2366,-0.2401,-0.2443,-0.2491,-0.2516,-0.2571,-0.2637,-0.2643,-0.2714,-0.2761,-0.2843,-0.2874,-0.2931,-0.2916,-0.2939,-0.2945,-0.2951,-0.2956,-0.2812,-0.2942,-0.2942,-0.2942,-0.2941,-0.2941,0,-0.2339,-0.2367,-0.2422,-0.2485,-0.2532,-0.2523,-0.2572,-0.2613,-0.2675,-0.2719,-0.277,-0.2846,-0.2908,-0.2943,-0.3006,-0.3045,-0.3045,-0.3061,-0.306,-0.3067,-0.2965,-0.2946,-0.306,-0.306,-0.306,-0.306,-0.306,-0.306,-0.241,-0.2489,-0.2502,-0.26,-0.2628,-0.2697,-0.2727,-0.2766,-0.28,-0.2885,-0.2936,-0.2958,-0.2999,-0.3065,-0.3122,-0.313,-0.3155,-0.3173,-0.3181,-0.3085,-0.3073,-0.3062,-0.3044,-0.3177,-0.3177,-0.3278,-0.3279,-0.3279]},{"header":{"parameterUnit":"m.s-1","parameterCategory":1,"la1":30.2991,"la2":30.254,"lo1":-89.0895,"lo2":-89.0444,"dy":0.0017,"dx":0.0017,"nx":28,"ny":28,"refTime":"2023-10-17T03:00:00:Z","depth":0,"parameterNumber":3,"parameterNumberName":"V-component_of_WINDS"},"data":[0,0,0,0,0,0,0,0,0,0,0,0,0,0,0,0,0,0,0,0,0,0,0,0,0,0,0,0,0,0,0,0,0,0,0,0,0,0,0,0,0,0,0,0,0,0,0,0,0,0,0,0,0,0,0,0,0,0,-4.4478,-4.4479,0,-4.458,-4.4581,-4.4582,-4.4529,-4.4527,-4.4524,-4.4521,-4.4621,-4.4626,-4.4631,0,0,0,0,0,0,0,0,0,0,0,0,0,-4.4233,-4.4238,-4.4478,-4.4479,-4.4481,-4.458,-4.4581,-4.4582,-4.453,-4.4527,-4.4523,-4.452,-4.462,-4.4626,-4.4632,0,0,0,0,0,0,0,0,0,0,0,0,0,-4.4338,-4.424,-4.4478,-4.4466,-4.4466,-4.4579,-4.4581,-4.4583,-4.4531,-4.4527,-4.4522,-4.4519,-4.4618,-4.4625,-4.4633,-4.4761,0,0,-4.4656,-4.466,0,0,0,0,0,0,0,0,-4.4332,-4.4347,-4.4467,-4.4467,-4.4468,-4.4538,-4.4531,-4.4642,-4.4532,-4.4506,-4.4521,-4.4517,-4.4597,-4.4606,-4.4634,-4.4766,-4.477,-4.4657,-4.4662,-4.4665,-4.4667,0,0,0,0,0,0,0,-4.4325,-4.4342,-4.4518,-4.4469,-4.4469,-4.4454,-4.4465,-4.4552,-4.4572,-4.4508,-4.4504,-4.4517,-4.4596,-4.4626,-4.4635,-4.4772,-4.4657,-4.4664,-4.4669,-4.4672,-4.5012,-4.5016,0,0,0,0,0,0,-4.4319,-4.4336,-4.4515,-4.4521,-4.4389,-4.4462,-4.4474,-4.4519,-4.4571,-4.4576,-4.4521,-4.4515,-4.4615,-4.4626,-4.4639,-4.4791,-4.4665,-4.4672,-4.4677,-4.5008,-4.5013,-4.5018,0,0,0,0,0,0,-4.4314,-4.4335,-4.4511,-4.4428,-4.4449,-4.4471,-4.4522,-4.4523,-4.4554,-4.4581,-4.4584,-4.4548,-4.4612,-4.4628,-4.4731,-4.4794,-4.4676,-4.4683,-4.5002,-4.5009,-4.5015,-4.5098,0,0,0,0,0,0,-4.4307,-4.4334,-4.4384,-4.4429,-4.4454,-4.4603,-4.4526,-4.4528,-4.4568,-4.4561,-4.4608,-4.4612,-4.461,-4.472,-4.4739,-4.4802,-4.4689,-4.4997,-4.5005,-4.5013,-4.509,-4.5106,-4.5121,0,0,0,0,0,-4.4298,-4.4403,-4.4387,-4.4409,-4.4518,-4.4607,-4.4621,-4.4618,-4.4573,-4.4623,-4.464,-4.461,-4.4784,-4.4731,-4.4752,-4.4819,-4.4993,-4.5003,-4.5013,-4.5083,-4.5103,-4.5121,0,0,0,0,0,0,-4.4363,-4.4409,-4.4391,-4.4514,-4.4557,-4.4598,-4.4661,-4.464,-4.4696,-4.4687,-4.468,-4.4691,-4.4798,-4.4818,-4.4758,-4.4944,-4.4881,-4.4896,-4.4927,-4.4947,-4.4962,-4.4955,-4.4695,0,0,0,0,0,-4.4392,-4.4463,-4.4498,-4.4602,-4.4625,-4.4639,-4.4678,-4.4673,-4.4716,-4.4734,-4.4759,-4.4801,-4.4865,-4.4907,-4.4968,-4.5092,-4.5101,-4.5149,-4.5164,-4.5177,-4.5189,-4.5255,-4.5276,-4.505,-4.505,-4.505,0,0,-4.4452,-4.4485,-4.453,-4.4616,-4.4649,-4.472,-4.4655,-4.4734,-4.4786,-4.4745,-4.4844,-4.4864,-4.491,-4.5024,-4.5076,-4.5045,-4.5253,-4.5189,-4.5199,-4.5205,-4.5267,-4.5288,-4.5307,-4.5057,-4.5056,-4.5055,0,0,-4.4597,-4.4631,-4.4721,-4.4755,-4.4805,-4.4814,-4.4835,-4.4879,-4.4891,-4.4991,-4.4961,-4.5022,-4.5133,-4.5167,-4.5199,-4.5355,-4.5329,-4.5375,-4.5456,-4.552,-4.5538,-4.5554,-4.5608,-4.5627,-4.5387,-4.5387,-4.5388,0,-4.4665,-4.4773,-4.4769,-4.485,-4.4888,-4.4855,-4.4945,-4.4978,-4.5045,-4.5071,-4.5036,-4.5173,-4.5202,-4.5323,-4.5361,-4.5388,-4.5411,-4.5369,-4.5536,-4.5552,-4.5566,-4.5618,-4.5638,-4.5393,-4.5392,-4.5392,-4.5391,0,-4.4852,-4.4927,-4.4994,-4.506,-4.5105,-4.519,-4.5198,-4.5244,-4.5234,-4.5246,-4.5346,-4.538,-4.5446,-4.5474,-4.5465,-4.5593,-4.5572,-4.5537,-4.5473,-4.5593,-4.5641,-4.5661,-4.54,-4.5398,-4.5397,-4.5395,0,0,-4.5042,-4.5105,-4.5129,-4.5158,-4.5211,-4.5268,-4.535,-4.5416,-4.5454,-4.5502,-4.5569,-4.5663,-4.563,-4.5666,-4.566,-4.5717,-4.5836,-4.5674,-4.5675,-4.5702,-4.5977,-4.6003,-4.6026,-4.5819,-4.5823,-4.5826,-4.5973,0,-4.5189,-4.5335,-4.5334,-4.5468,-4.5536,-4.5505,-4.5577,-4.5616,-4.5629,-4.5686,-4.57,-4.5766,-4.5719,-4.574,-4.5794,-4.581,-4.5891,-4.58,-4.588,-4.5883,-4.5869,-4.6051,-4.6079,-4.6215,-4.5992,-4.5995,-4.5997,0,-4.5382,-4.5436,-4.5577,-4.5618,-4.5647,-4.5711,-4.577,-4.5827,-4.5869,-4.5874,-4.5914,-4.5899,-4.598,-4.5915,-4.6026,-4.5964,-4.5996,-4.6009,-4.6014,-4.602,-4.5947,-4.6061,-4.6259,-4.6279,-4.6027,-4.6025,-4.6023,0,-4.5504,-4.5612,-4.571,-4.5736,-4.5787,-4.5833,-4.5856,-4.5894,-4.5933,-4.5984,-4.6009,-4.6069,-4.6101,-4.6146,-4.6147,-4.6099,-4.6258,-4.6193,-4.6263,-4.6263,-4.6297,-4.6295,-4.6502,-4.632,-4.632,-4.632,-4.6319,0,-4.5668,-4.5756,-4.5765,-4.5826,-4.5921,-4.5918,-4.6012,-4.6031,-4.6065,-4.6127,-4.6104,-4.6162,-4.616,-4.6218,-4.6219,-4.6309,-4.6324,-4.6329,-4.6328,-4.6331,-4.633,-4.6351,-4.6341,-4.6325,-4.6324,-4.6323,-4.6322,0,-4.5821,-4.5831,-4.5936,-4.5976,-4.5987,-4.6056,-4.6089,-4.6145,-4.6156,-4.6234,-4.6252,-4.6268,-4.6335,-4.634,-4.6418,-4.6418,-4.6527,-4.6517,-4.6514,-4.6511,-4.658,-4.6573,-4.6807,-4.6837,-4.6638,-4.6639,-4.6641,0,-4.5925,-4.5992,-4.6038,-4.6078,-4.6104,-4.617,-4.6209,-4.6207,-4.6249,-4.6302,-4.6351,-4.6417,-4.6469,-4.6577,-4.6594,-4.6653,-4.6642,-4.672,-4.6651,-4.6651,-4.6642,-4.6638,-4.6643,-4.6734,-4.6736,-4.6738,-4.6739,0,-4.6108,-4.6109,-4.6168,-4.6229,-4.6277,-4.6324,-4.6368,-4.6402,-4.6405,-4.6453,-4.6522,-4.6562,-4.6641,-4.6706,-4.6763,-4.6784,-4.6762,-4.6761,-4.678,-4.6783,-4.6778,-4.678,-4.6549,-4.6755,-4.6754,-4.6753,-4.6752,-4.6751,-4.6239,-4.6295,-4.6337,-4.6403,-4.6436,-4.6477,-4.6531,-4.6548,-4.6606,-4.6671,-4.6666,-4.6742,-4.6781,-4.6856,-4.6882,-4.6939,-4.6913,-4.6941,-4.6948,-4.6954,-4.6961,-4.677,-4.695,-4.6949,-4.6949,-4.6949,-4.6948,0,-4.6419,-4.6444,-4.6505,-4.6567,-4.6618,-4.6594,-4.6641,-4.6684,-4.6752,-4.6791,-4.6842,-4.692,-4.6982,-4.7004,-4.7064,-4.7106,-4.7097,-4.7121,-4.7118,-4.7123,-4.6982,-4.6959,-4.7128,-4.7127,-4.7127,-4.7127,-4.7127,-4.7127,-4.6519,-4.6613,-4.662,-4.6729,-4.6753,-4.6828,-4.6857,-4.6894,-4.6924,-4.7013,-4.7065,-4.7079,-4.711,-4.7172,-4.7227,-4.7231,-4.7254,-4.7282,-4.7283,-4.7151,-4.7133,-4.7115,-4.7094,-4.7288,-4.7288,-4.7418,-4.7419,-4.742]}]]